Results By Division


Marshman® Triathlon Presented by Kinetic PT

Race Date: Sunday September 18, 2011
Description: 1/4 Mile Swim~12.5 Mile Bike~2 Mile Run
Race Category: Sprint Triathlon
# Entrants in Division: 38

Choose:
 Division
Place
Overall
Place
NameCityStateRace AgeGenderDivisionTimeBib#
View 1 48 Randall, Leslie Royersford PA 42 F 40-44 1:06:20 343
View 2 56 Kolimago, Carol Glenmoore PA 42 F 40-44 1:07:24 342
View 3 62 Miller, Rosemarie Downingtown PA 42 F 40-44 1:08:38 369
View 4 106 Bardman, Cyndi Barto PA 42 F 40-44 1:13:54 146
View 5 117 Friedman, Virginia Philadelphia PA 41 F 40-44 1:14:55 357
View 6 131 Kalucki, Missey Chester Springs PA 42 F 40-44 1:16:11 341
View 7 143 Hickerson, Michelle Chapel Hill NC 42 F 40-44 1:16:49 353
View 8 155 Umberger, Julie Chester Springs PA 43 F 40-44 1:18:08 372
View 9 159 Rubino, Beth West Chester PA 41 F 40-44 1:18:19 363
View 10 175 Ferguson, Marlena Exton PA 42 F 40-44 1:19:50 367
View 11 185 Turulski, Michele Hockessin DE 44 F 40-44 1:21:01 362
View 12 188 Hussey, Margaret Media PA 42 F 40-44 1:21:07 368
View 13 199 Mcgonagle, Maureen Chester Springs PA 41 F 40-44 1:21:55 370
View 14 216 Robinson, Ronni Huntingdon Valley PA 43 F 40-44 1:23:00 366
View 15 217 Longenecker, Orpha Parkesburg PA 40 F 40-44 1:23:07 464
View 16 221 Raley, Jennifer Dover DE 41 F 40-44 1:23:24 465
View 17 222 Quigley, Carol West Chester PA 40 F 40-44 1:23:32 375
View 18 242 Haraf, Johanna Wyndmoor PA 42 F 40-44 1:25:11 345
View 19 258 Macgregor, Joanne Berwyn PA 44 F 40-44 1:26:53 376
View 20 279 Lindeman, Becky Merion PA 40 F 40-44 1:30:14 359
View 21 280 Fisher, Jennifer Royersford PA 41 F 40-44 1:30:21 377
View 22 293 Petrucci, Kimberly Wynnewood PA 41 F 40-44 1:31:17 374
View 23 295 Trego, Michelle New Holland PA 41 F 40-44 1:31:43 355
View 24 309 Dempsey, Barbara Newark DE 40 F 40-44 1:33:23 348
View 25 310 Lipton, Jill Downingtown PA 40 F 40-44 1:33:24 347
View 26 316 Hellgoth, Marie Downingtown PA 42 F 40-44 1:34:26 358
View 27 321 Dadamio, Lisa Reading PA 42 F 40-44 1:34:52 346
View 28 323 Polizzi, Angie Devon PA 42 F 40-44 1:34:57 350
View 29 324 Powers, Tracey Phoenix AZ 42 F 40-44 1:34:57 352
View 30 336 Burger, Stacy Bethlehem PA 41 F 40-44 1:36:29 351
View 31 348 Murphy, Juliane West Chester PA 40 F 40-44 1:39:16 373
View 32 350 Christ, Colleen Pottstown PA 42 F 40-44 1:39:51 463
View 33 351 Macluckie, Michelle Gilbertsville PA 42 F 40-44 1:39:56 371
View 34 365 Cover-miller, Denise Downingtown PA 42 F 40-44 1:43:17 344
View 35 376 Lee, Laura West Chester PA 40 F 40-44 1:46:51 354
View 36 380 Brown-joseph, Belinda Chalfont PA 40 F 40-44 1:47:54 360
View 37 392 Bartley, Suzanne Chalfont PA 44 F 40-44 1:55:31 15
View 38 393 Colella, Deborah Pottstown PA 41 F 40-44 1:56:08 349